Overview Statistics Trail Chart Weather Telemetry Raw packets
 

This is the latest recevied weather packets stored in our database for station/object KN6CRX-10. If no packets are shown the sender has not sent any weather packets the latest 10 day(s).

<< 1 2 3 4 5 6 >>
Time Temp. Humidity Pressure Rain* Wind** Luminosity Snow
1788426087 12.78° C 51% 1015.6 hPa 0 mm - 0 W/m² -
1788425786 12.78° C 48% 1015.5 hPa 0 mm - 0 W/m² -
1788425481 12.78° C 51% 1015.5 hPa 0 mm - 0 W/m² -
1788425179 12.78° C 48% 1015.5 hPa 0 mm - 0 W/m² -
1788424874 12.78° C 47% 1015.6 hPa 0 mm - 0 W/m² -
1788424570 13.33° C 49% 1015.7 hPa 0 mm - 0 W/m² -
1788424269 13.33° C 48% 1016 hPa 0 mm - 0 W/m² -
1788423964 13.33° C 50% 1015.7 hPa 0 mm - 0 W/m² -
1788423660 13.89° C 47% 1015.6 hPa 0 mm - 0 W/m² -
1788423354 13.89° C 45% 1015.5 hPa 0 mm - 0 W/m² -
1788423050 13.89° C 47% 1015.6 hPa 0 mm - 0 W/m² -
1788422746 13.89° C 45% 1015.4 hPa 0 mm - 0 W/m² -
1788422443 13.89° C 43% 1015.6 hPa 0 mm - 0 W/m² -
1788422138 15° C 43% 1015.5 hPa 0 mm - 0 W/m² -
1788421833 15° C 40% 1015.6 hPa 0 mm - 0 W/m² -
1788421532 15° C 37% 1015.3 hPa 0 mm - 0 W/m² -
1788421227 15.56° C 36% 1015.4 hPa 0 mm - 0 W/m² -
1788420922 15.56° C 36% 1015.3 hPa 0 mm - 0 W/m² -
1788420619 15.56° C 35% 1015.1 hPa 0 mm - 0 W/m² -
1788420314 15.56° C 35% 1015.3 hPa 0 mm - 0 W/m² -
1788420010 15.56° C 35% 1015.3 hPa 0 mm - 0 W/m² -
1788419706 15.56° C 35% 1015.3 hPa 0 mm - 0 W/m² -
1788419407 15.56° C 36% 1015.2 hPa 0 mm - 0 W/m² -
1788419106 15° C 36% 1015.1 hPa 0 mm - 0 W/m² -
1788418802 15° C 38% 1015.3 hPa 0 mm - 0 W/m² -

* Rain latest hour (hover to see other rain measurements)
** Current wind speed in m/s (hover to see current wind gust speed)